Find SITRO-AIS-40

NORAD ID: 61776 Int'l Des: 2024-199 Owner: SITRO Country: RU Constellation: sitronics operational
LEOCIRCULARRETROGRADESSO

リアルタイム位置

3D地球を読み込み中...

SITRO-AIS-40について

説明を読み込み中...

次回通過

Passes for default location (London). Set your location on the main map for personalized predictions.

高度履歴

Loading altitude history...

軌道要素

1 61776U 24199AT 26106.88673410 .00029671 00000-0 44308-3 0 9991
2 61776 97.2999 342.0252 0008804 144.0021 216.1828 15.54957440128085
Epoch: Apr 16, 2026 • Age: 13 hours

現在のステータス

高度 420.3 km
速度 7.66 km/s
衛星直下点 -47.64°S, 149.78°E
打ち上げ日 Nov 4, 2024
運用期間 1.4 years
タイプ other

技術仕様

分類 Payload
質量 3.00 kg
乾燥質量 3.00 kg
総質量 3.00 kg
長さ 0.30 m
直径 0.10 m
スパン 0.30 m
形状 Box
製造者 SPUT
バスタイプ Cubesat 3U
フェーズステータス In Orbit
所有者/国 SITRO/RU

Most Searched